GFSNGP_850_thetae_336.txt.gz
Theta_e
330 331 331 333 332 331 331 341 341 340 335 337 338 341 358 360 358 355 356 356 355 346 344 344 347 344 348 351 350 351 350 349 347 346 347 348 348 349 348 347 344 343 344 344
328 331 331 334 334 342 344 343 339 337 340 336 339 352 357 354 350 347 352 355 353 353 349 347 348 342 341 345 350 351 354 354 353 353 351 352 354 354 352 349 350 350 349 352
329 327 331 333 335 334 348 341 338 345 344 343 348 353 356 353 349 345 340 345 353 354 355 352 352 350 349 350 353 354 353 347 343 350 356 356 357 357 357 357 356 353 353 353
327 327 333 331 332 336 351 346 346 346 344 346 348 352 353 346 348 347 339 342 343 342 342 342 342 345 344 341 345 351 347 345 337 334 352 354 357 360 360 358 358 357 358 357
326 327 328 337 335 336 347 341 345 345 344 345 348 349 352 351 348 344 342 343 343 342 342 342 341 339 338 338 339 339 337 342 341 338 351 353 352 354 351 351 352 356 356 357
325 331 332 336 335 336 337 342 341 343 343 346 348 348 345 349 346 347 344 344 344 345 344 343 343 344 342 339 336 337 339 340 342 342 338 336 338 341 344 347 347 349 348 347
328 329 337 339 338 337 334 340 341 343 345 346 346 348 348 348 346 346 346 345 344 343 344 344 344 344 344 343 336 337 339 339 339 338 337 337 339 335 335 335 336 338 339 337
336 335 341 339 340 339 339 340 340 340 340 339 339 339 340 339 342 345 344 345 345 345 344 343 343 343 344 342 333 335 336 335 335 338 336 335 334 335 341 340 337 339 337 336
337 340 337 338 337 341 340 339 339 340 340 338 339 339 339 339 340 341 343 344 342 342 342 340 342 344 344 340 334 335 335 336 333 336 336 336 335 337 339 340 345 348 342 340
334 337 336 335 336 336 337 336 334 334 333 334 338 340 340 341 341 341 341 340 340 337 340 340 340 344 342 338 339 337 338 337 337 337 336 337 337 336 336 338 340 345 342 344
333 335 336 335 335 334 334 334 334 334 333 335 338 339 339 338 340 341 339 339 343 344 338 339 342 342 341 342 342 341 340 338 338 338 336 340 339 337 338 338 341 344 346 349
330 335 336 337 335 333 333 334 335 337 338 339 340 337 338 339 341 342 343 344 344 344 345 343 339 343 340 337 341 334 334 339 336 338 338 339 340 338 338 334 337 337 332 333
332 334 337 337 335 334 335 336 336 336 338 339 339 338 339 339 340 341 341 341 342 343 343 343 344 344 339 334 332 335 336 339 336 338 336 337 335 337 334 338 339 333 335 337
333 336 337 337 338 335 333 335 335 337 338 338 338 339 338 338 339 337 341 346 345 346 344 347 345 339 336 341 336 335 340 338 338 332 333 338 333 335 333 333 338 339 338 338
333 332 334 334 336 333 333 336 338 338 339 338 339 338 339 339 341 342 344 344 344 344 342 342 343 343 342 342 341 335 339 337 331 329 334 337 338 334 333 335 336 333 334 338
334 334 331 331 333 333 333 334 336 337 339 339 339 338 338 338 340 342 344 343 341 343 343 344 342 341 341 334 338 339 340 339 340 337 333 336 337 337 335 331 333 333 332 335
334 332 331 332 331 333 333 334 336 338 338 338 337 337 337 337 337 337 337 335 338 344 342 343 337 341 340 336 338 340 339 340 340 339 339 339 334 336 336 330 330 333 331 336
335 333 333 332 331 332 333 335 337 337 337 337 337 336 334 335 334 334 333 335 339 343 344 343 341 339 339 339 341 341 340 342 340 340 338 337 337 335 338 338 335 335 330 339
335 334 333 333 332 334 335 339 337 336 336 336 336 332 332 333 333 334 331 330 342 339 337 337 337 339 340 340 341 340 339 340 339 338 336 336 329 331 331 335 336 332 330 338
335 334 333 333 333 333 336 337 337 336 336 335 330 331 333 333 333 332 329 337 340 340 333 335 339 339 337 336 334 336 339 337 338 339 332 334 331 331 335 338 339 339 338 339
336 334 334 333 333 334 337 337 336 336 335 333 329 330 328 324 324 326 330 336 338 338 333 332 331 331 330 329 326 332 339 338 341 332 334 335 338 338 338 339 338 339 339 339
336 335 335 334 334 334 337 336 335 335 333 330 331 330 325 331 331 331 332 331 331 336 333 331 328 327 328 328 327 326 338 336 338 339 339 338 335 333 338 338 337 336 337 340
335 335 334 334 336 335 336 336 335 334 333 331 332 328 323 326 329 330 330 330 332 335 329 326 325 325 327 329 330 331 335 335 334 333 332 332 336 338 337 337 337 336 336 336
335 335 335 335 337 335 334 333 334 333 333 333 330 324 324 323 327 328 329 332 330 327 327 326 326 325 328 328 331 331 329 330 332 336 335 334 333 334 338 338 336 335 335 334
338 337 337 335 336 336 334 334 333 334 334 332 330 328 328 328 327 328 329 329 329 329 328 327 326 326 326 326 326 325 325 327 328 330 331 333 333 334 332 331 334 336 336 335
338 334 332 334 336 335 334 334 334 334 333 333 329 329 329 329 330 328 327 327 327 328 327 327 327 326 326 326 327 326 325 325 324 324 324 324 324 329 333 332 332 331 331 331
333 337 334 336 335 334 334 334 334 334 333 332 331 329 328 330 330 327 325 324 324 324 325 325 324 324 324 324 325 324 324 324 324 324 325 325 325 325 332 334 332 332 332 333

GFSNGP_850_thetae_339.txt.gz
Theta_e
327 327 329 331 333 332 329 337 337 339 339 337 336 339 349 352 358 355 355 353 353 351 347 345 343 343 347 348 349 350 350 350 348 348 349 348 345 343 345 346 343 342 341 340
327 326 329 333 334 340 341 337 336 334 337 332 337 350 357 355 349 349 353 352 352 350 348 347 346 345 345 348 349 350 353 353 352 350 348 350 351 351 352 353 353 352 350 348
327 324 328 332 333 339 343 338 336 338 337 335 341 354 352 349 345 342 345 351 353 353 352 349 348 348 345 345 344 342 344 350 349 351 345 340 346 352 354 353 355 357 356 356
324 325 333 331 329 333 340 339 344 345 343 344 350 354 352 346 344 340 341 342 341 340 340 341 343 345 349 347 345 343 340 343 338 339 345 340 337 336 352 352 350 352 353 355
324 325 326 336 334 345 346 347 343 345 344 347 351 351 351 349 345 341 342 343 343 343 342 342 343 342 339 340 342 342 342 345 337 345 345 340 345 347 349 349 349 346 350 352
322 329 330 332 334 339 339 348 339 343 345 347 348 348 346 348 344 343 343 344 344 344 344 343 343 343 342 339 337 337 336 336 341 343 340 340 337 336 338 342 343 339 338 344
325 327 333 333 338 335 337 336 341 343 346 347 344 345 347 347 346 345 345 345 345 343 343 344 343 342 342 341 337 336 339 339 339 340 341 339 338 337 336 336 338 337 336 336
332 334 339 336 337 336 333 340 343 344 344 347 346 341 345 346 346 346 345 344 344 344 343 343 344 343 342 341 334 335 336 337 333 334 336 335 335 334 334 338 339 339 343 344
335 337 334 336 338 340 341 340 340 340 340 345 338 340 343 342 346 345 344 344 344 342 341 338 341 343 344 341 337 339 340 337 335 336 335 336 337 337 336 335 336 337 338 343
333 336 335 336 339 339 339 340 339 339 338 338 338 337 338 338 339 340 341 341 340 337 335 338 340 343 344 339 340 342 340 338 336 336 335 334 338 338 337 336 339 338 341 344
330 333 335 334 335 337 336 334 334 333 333 335 339 340 340 340 340 340 339 338 342 342 343 339 337 340 343 339 341 335 334 334 334 334 336 337 338 339 339 339 336 335 339 344
329 331 334 334 334 334 334 333 333 333 333 336 339 338 338 338 338 340 341 343 344 344 344 343 341 340 344 338 339 334 331 333 333 333 335 336 337 335 337 335 336 331 335 335
332 332 333 335 335 333 333 334 335 335 338 338 338 338 338 340 342 341 340 340 343 343 343 344 345 342 341 340 335 334 332 334 333 330 334 337 333 335 335 338 338 336 334 338
332 332 336 336 334 334 335 336 336 337 339 339 338 338 338 338 337 335 342 345 343 343 347 347 345 343 342 341 341 332 337 335 330 329 331 336 334 335 335 333 333 337 335 337
332 332 332 336 335 336 333 334 335 336 338 338 338 338 338 338 339 340 343 343 342 342 340 339 339 341 340 341 340 337 336 338 336 336 330 332 335 336 333 333 334 334 335 334
334 334 333 333 335 336 333 334 336 337 338 338 338 338 338 337 338 343 344 342 341 340 341 342 339 339 336 333 333 339 340 340 339 339 338 336 334 337 337 334 330 331 331 330
335 334 333 331 333 334 333 335 337 337 338 339 339 339 337 336 337 337 336 335 333 340 343 341 337 338 339 338 337 339 339 339 340 340 339 338 338 336 336 337 330 332 333 333
332 334 334 333 331 332 332 333 335 336 338 338 338 337 336 334 334 333 331 330 333 342 343 341 338 336 337 340 340 340 341 340 339 339 338 337 336 336 334 338 335 332 333 332
332 331 333 333 332 332 331 332 333 337 338 338 337 336 335 331 330 331 330 327 340 340 338 336 337 338 340 339 339 338 338 335 338 338 335 334 329 327 332 333 335 335 331 335
335 335 333 334 333 332 332 332 334 337 337 336 336 335 330 330 330 331 329 333 341 338 333 334 336 334 333 333 331 330 333 338 338 333 333 333 333 333 334 336 337 338 336 337
334 336 335 334 333 332 332 335 336 337 336 336 336 332 329 329 327 323 330 338 341 334 333 332 330 327 325 327 326 324 334 339 340 335 333 336 336 337 337 337 338 337 337 338
332 333 335 334 333 333 332 335 337 337 336 335 332 329 328 322 323 325 328 330 336 335 334 331 326 324 326 327 328 326 334 335 336 336 336 338 336 332 337 336 336 336 336 337
336 333 333 335 333 333 333 335 337 336 336 335 333 329 328 323 329 330 330 330 331 333 333 326 324 326 327 329 330 332 334 334 333 334 334 333 333 335 336 337 335 334 335 336
332 336 335 334 334 334 334 335 336 336 335 334 331 329 322 322 324 328 329 329 331 331 327 326 325 325 327 326 326 329 328 328 328 330 334 333 332 332 331 330 330 330 333 335
331 333 336 336 334 334 334 335 336 335 333 332 332 327 324 324 324 327 328 329 327 327 328 328 327 326 326 325 325 326 326 325 326 327 326 328 331 330 333 333 332 332 329 332
329 332 332 336 335 336 336 336 335 334 333 333 331 328 328 327 327 328 329 329 329 328 328 327 327 326 326 326 326 326 326 325 325 324 324 324 324 324 325 333 333 332 331 330
327 329 331 332 336 335 336 336 335 333 333 333 331 328 328 328 329 329 327 326 325 324 324 324 323 323 322 323 323 324 325 324 324 324 324 324 324 325 325 325 331 333 332 330

GFSNGP_850_thetae_342.txt.gz
Theta_e
326 325 326 329 336 330 331 333 337 336 341 343 340 339 349 356 354 350 352 351 350 350 347 345 342 342 343 343 345 345 345 345 346 347 348 350 351 352 352 349 344 345 347 346
328 324 327 334 332 339 337 335 335 336 341 332 337 350 357 351 345 348 351 352 352 349 347 346 345 345 344 344 345 347 347 348 347 348 350 351 350 350 349 350 353 351 352 353
327 322 328 332 333 334 341 335 334 341 338 335 344 353 352 345 340 341 344 342 341 344 349 349 348 345 347 348 349 349 350 350 349 349 350 347 345 345 344 342 339 344 351 352
323 324 332 329 330 330 338 340 342 342 336 340 348 353 348 342 339 340 340 340 340 339 340 340 343 344 346 348 348 345 345 345 348 345 341 344 338 334 334 343 344 345 342 344
323 323 325 334 335 342 339 341 340 343 343 347 352 351 349 345 341 341 341 343 342 342 342 342 342 341 339 339 339 341 345 346 345 344 339 337 335 337 342 339 340 345 345 338
320 327 329 331 333 336 340 345 340 344 345 349 349 344 343 345 343 341 343 343 343 343 343 344 343 342 342 342 340 337 336 336 336 337 341 340 343 343 339 337 336 335 337 339
323 325 327 328 336 333 340 338 340 345 348 349 345 342 346 346 344 344 344 344 344 343 343 343 343 343 342 342 333 333 336 337 337 335 336 338 340 338 335 335 335 338 339 339
328 331 334 335 336 334 331 338 342 345 348 349 346 346 346 342 340 340 340 342 344 344 344 343 342 342 343 342 333 334 335 335 334 333 334 336 335 335 335 335 335 337 336 335
333 333 331 335 335 338 341 342 343 344 345 347 345 337 338 340 343 343 343 343 343 343 341 340 339 342 341 339 335 337 338 338 337 338 336 336 335 336 337 337 336 335 336 336
333 333 334 337 339 340 340 339 339 338 339 345 342 336 337 341 340 342 343 342 340 338 334 338 341 342 341 338 340 342 339 337 336 337 336 336 334 338 338 338 337 337 335 341
329 331 334 335 338 339 339 339 338 337 337 337 337 336 336 337 338 340 340 339 339 341 342 341 339 340 342 339 339 333 333 332 331 332 334 333 336 336 336 338 335 334 333 340
330 332 333 334 335 337 335 335 334 333 333 333 336 337 337 339 340 340 339 339 342 343 342 342 342 342 342 338 335 334 330 331 333 333 333 336 336 333 335 335 334 332 336 336
331 332 332 332 334 334 334 333 333 334 334 333 339 340 339 338 338 340 340 340 341 341 341 342 344 345 340 339 334 333 332 333 334 329 333 335 334 334 335 337 335 335 334 337
331 331 332 334 333 334 333 333 334 335 337 338 338 338 338 339 340 337 334 340 342 341 344 345 344 341 341 341 340 340 332 336 334 335 331 330 335 335 336 335 332 335 335 336
330 329 330 331 336 334 333 334 335 336 338 337 337 338 339 338 337 337 338 343 340 341 339 338 338 337 338 337 338 340 335 339 338 337 339 337 336 332 335 333 334 334 334 332
333 333 333 331 334 334 334 335 334 335 338 338 338 338 338 337 338 338 340 343 342 341 339 339 339 336 338 335 332 336 338 339 339 339 339 339 338 336 336 336 334 330 332 334
333 333 333 332 332 335 335 334 333 334 336 338 338 338 338 338 337 339 340 338 335 334 341 340 339 338 337 339 337 338 339 339 339 341 339 339 338 337 337 336 336 331 333 332
330 331 333 333 333 332 335 333 333 334 336 336 338 338 338 337 335 334 334 329 329 337 342 342 338 334 336 338 340 339 339 339 337 338 337 337 335 332 331 334 337 336 332 333
334 333 331 330 330 333 331 332 332 334 337 336 338 338 338 336 333 332 330 328 329 339 339 336 336 337 337 336 335 336 336 336 336 336 336 332 330 330 331 333 332 336 333 332
332 333 335 334 332 331 331 332 331 332 335 337 338 338 337 335 330 329 329 327 329 338 335 335 334 330 327 327 328 327 326 334 338 335 333 335 336 337 338 337 337 337 336 336
333 332 331 333 335 332 332 331 332 331 333 337 338 337 335 333 329 328 326 325 333 338 333 332 330 326 323 326 326 326 325 337 337 336 336 337 336 334 336 336 336 337 337 337
334 333 330 330 332 335 333 332 332 333 334 338 337 336 334 330 328 324 320 332 338 336 334 333 327 325 325 327 329 326 329 336 335 334 333 332 335 336 334 335 335 335 334 335
332 335 334 334 331 332 334 332 332 333 336 337 336 336 334 331 327 321 321 332 331 332 334 329 325 325 326 328 330 331 332 333 332 333 334 333 332 331 330 332 330 329 331 334
325 332 333 333 335 333 334 333 332 333 336 336 336 335 333 328 324 324 328 329 330 330 332 326 325 325 328 326 326 327 328 327 328 328 329 331 331 332 332 332 331 331 328 328
322 326 330 330 333 334 334 333 333 333 335 337 336 333 331 328 325 324 326 329 329 331 327 327 326 326 325 325 325 325 325 325 325 326 326 324 324 326 328 324 331 332 331 329
319 324 327 329 330 334 334 333 333 334 334 336 334 332 330 324 321 325 328 330 331 327 327 328 327 327 326 326 326 326 325 326 326 325 325 324 324 324 324 325 326 329 332 331
316 320 324 327 329 332 335 334 333 334 334 336 334 332 330 324 325 325 327 328 327 327 328 326 325 325 324 323 322 322 322 324 324 324 324 324 324 324 324 324 325 325 327 332

GFSNGP_850_thetae_345.txt.gz
Theta_e
330 330 330 332 339 336 336 339 339 343 348 347 346 355 357 355 350 352 352 351 349 349 346 345 343 342 343 343 343 343 344 345 345 345 346 346 345 346 348 348 350 351 352 349
334 329 333 338 339 340 336 340 341 344 344 343 352 357 351 347 347 351 350 348 349 350 347 345 345 344 343 344 345 346 347 348 348 348 349 349 350 350 350 350 348 346 346 347
336 330 334 338 339 341 344 340 341 344 344 346 357 349 346 343 343 344 343 340 340 342 345 348 347 348 348 348 349 350 351 352 352 352 353 353 352 348 344 344 345 345 342 340
333 333 335 335 336 338 342 339 342 342 344 350 351 348 346 342 340 340 340 339 340 341 340 340 339 338 339 342 345 347 347 346 345 345 349 347 344 342 342 339 337 336 341 341
334 333 332 338 340 343 344 343 346 343 344 353 351 346 347 340 339 342 341 341 342 342 343 342 342 342 341 341 340 338 339 340 343 346 344 345 339 337 338 340 342 341 340 339
332 332 334 338 337 339 343 343 345 345 349 352 350 346 349 344 340 342 343 342 342 342 343 343 343 342 342 341 334 334 335 336 338 338 338 340 340 340 341 342 341 337 335 335
332 333 331 333 335 336 348 344 344 347 349 352 349 345 346 344 342 342 344 344 343 343 343 343 341 343 341 341 333 335 337 337 335 334 335 337 339 340 339 337 336 335 335 337
334 337 334 337 340 342 340 340 343 348 350 351 347 346 348 345 342 338 341 343 344 344 343 341 337 338 339 339 334 335 335 336 335 334 333 334 334 334 335 335 335 335 334 335
342 340 337 336 338 337 340 343 343 349 349 350 347 347 342 337 335 336 339 343 343 342 338 338 337 337 336 333 334 335 336 337 337 335 335 335 335 335 336 337 338 336 336 336
341 339 339 337 339 340 341 341 341 343 346 347 345 337 336 337 337 338 340 342 341 337 335 335 338 339 339 335 337 337 332 333 333 334 333 334 334 336 338 338 338 338 336 333
339 337 337 336 339 340 339 337 335 337 337 338 343 337 336 337 339 338 340 341 338 340 341 342 342 340 339 339 335 333 330 330 332 333 332 333 336 336 336 336 337 334 336 335
339 340 340 339 338 338 339 338 337 336 336 335 335 337 336 336 337 338 340 339 339 341 342 342 342 342 342 341 335 336 334 331 334 331 333 334 335 333 334 336 335 333 333 335
335 332 332 332 332 334 337 336 334 333 333 333 333 335 336 337 339 339 339 340 337 336 336 343 342 343 343 338 338 335 335 334 335 332 331 331 332 335 335 337 337 335 333 332
331 331 332 331 333 332 334 334 333 334 333 335 336 339 339 339 338 339 336 334 338 339 339 341 343 343 341 341 341 340 340 334 336 336 336 339 338 333 334 333 333 332 331 334
330 330 331 330 329 332 333 333 333 334 334 336 338 338 337 337 338 336 336 336 340 339 338 337 337 338 337 337 336 336 339 336 337 338 339 339 338 338 335 335 334 333 333 333
330 332 332 330 330 332 333 332 335 335 334 337 338 337 337 338 337 337 337 338 341 342 340 339 338 337 337 337 334 335 338 338 339 339 340 340 339 338 337 336 335 331 332 332
329 334 332 332 332 331 333 333 334 334 334 337 337 337 338 338 338 338 337 338 340 337 333 336 339 339 336 336 338 338 338 339 339 340 338 338 337 336 335 334 336 332 332 332
330 330 330 333 333 331 332 334 334 334 334 334 336 337 338 338 338 337 335 333 331 327 334 340 340 336 335 336 338 338 338 338 337 336 337 336 331 330 328 331 335 336 333 332
333 333 332 331 331 331 331 332 333 334 332 333 335 337 337 337 338 336 333 330 328 328 335 341 337 336 336 335 335 334 335 335 335 336 336 332 335 336 335 333 332 334 333 332
333 333 334 334 333 332 331 331 331 332 332 332 334 336 337 338 338 335 331 328 326 327 338 337 336 334 329 324 325 327 328 326 333 337 333 336 335 335 336 337 337 338 337 336
332 332 332 331 333 335 332 331 332 331 331 330 333 336 337 338 338 335 330 328 323 329 337 334 332 329 325 324 325 326 325 333 336 337 336 336 337 335 335 335 335 335 336 337
330 332 333 332 331 330 333 333 332 332 331 331 331 334 337 338 337 334 330 327 321 330 336 332 331 327 325 324 328 326 327 336 335 334 332 331 331 331 333 335 335 333 333 334
321 327 332 334 333 330 329 330 333 332 332 332 332 332 336 338 336 334 330 325 322 334 335 333 331 326 324 327 329 331 331 332 332 332 332 333 332 331 330 329 330 329 327 328
317 320 324 330 334 335 334 331 332 333 333 332 333 333 337 337 336 333 329 322 324 332 335 333 329 325 324 328 327 327 328 328 328 327 327 328 328 329 331 331 331 332 331 329
312 317 320 324 329 332 333 334 333 333 333 332 333 335 337 337 335 333 328 324 325 329 330 333 328 326 325 326 325 325 326 326 325 326 325 326 325 323 323 324 324 324 332 331
312 313 315 319 323 326 329 332 334 333 332 332 333 335 336 336 335 331 327 325 326 329 329 331 327 327 327 327 326 326 326 325 324 324 325 325 325 324 324 324 324 325 325 330
313 312 313 316 320 323 327 329 333 333 332 332 333 334 335 336 334 330 325 324 324 327 329 330 327 327 326 325 326 325 323 321 321 321 323 323 323 323 324 324 324 323 324 325